Location: Chuathbaluk
(61.5726°N, 159.2454°W)
Time: 12:30:21
(UTC+00:00)

N. Korean satellite - Pass Details

Date: 30 October 2020
Orbit: 453 x 503 km, 97.2° (Epoch: 04 December)

Event Time Altitude Azimuth Distance (km) Brightness Sun altitude
Rises 15:01:06 0° 26° (NNE) 2,492 10.7 -21.8°
Reaches altitude 10° 15:04:03 10° 54° (NE) 1,607 10.1 -21.4°
Maximum altitude 15:05:49 13° 85° (E) 1,407 10.0 -21.2°
Drops below altitude 10° 15:07:33 10° 116° (ESE) 1,598 9.9 -21.0°
Sets 15:10:28 0° 145° (SE) 2,466 10.5 -20.7°
